Location: Izdebno
(52.6670°N, 16.2170°E)
Time: 08:56:15
(UTC+02:00)

A-11 Canister half - Pass Details

Date: 22 February 2024
Orbit: 1513 x 1686 km, 47.2° (Epoch: 24 April)

Event Time Altitude Azimuth Distance (km) Brightness Sun altitude
Exits shadow 00:49:18 11° 97° (E) 3,822 11.1 -47.0°
Drops below altitude 10° 00:49:54 10° 94° (E) 3,911 11.2 -47.0°
Sets 00:54:41 0° 75° (ENE) 4,874 11.9 -46.8°
